Location: Blackpool
(53.8200°N, 3.0410°W)
Time: 12:52:36
(UTC+00:00)

Tiangong 2 - Visible Passes

Search period start: 20 January 2018 00:00
Search period end: 30 January 2018 00:00
Orbit: 384 x 390 km, 42.8° (Epoch: 18 January)

Date Brightness Start Highest point End Pass type
(mag) Time Alt. Az. Time Alt. Az. Time Alt. Az.
20 Jan 4.1 06:51:17 10° S 06:51:58 10° S 06:52:39 10° SSE visible
21 Jan 3.9 07:28:08 10° SSW 07:29:27 12° S 07:30:45 10° SSE visible
22 Jan 3.9 06:29:47 10° SSW 06:31:00 12° S 06:32:13 10° SSE visible
23 Jan 4.0 05:32:48 11° SSE 05:32:48 11° SSE 05:33:18 10° SSE visible
23 Jan 3.9 07:07:25 10° SSW 07:08:28 11° S 07:09:32 10° SSE visible
24 Jan 3.7 06:09:05 11° SSW 06:10:02 12° S 06:11:18 10° SSE visible
26 Jan 3.8 05:49:18 11° S 05:49:18 11° S 05:50:00 10° S visible
